Time,TemperatureF,DewpointF,PressureIn,WindDirection,WindDirectionDegrees,WindSpeedMPH,WindSpeedGustMPH,Humidity,HourlyPrecipIn,Conditions,Clouds,dailyrainin,SoftwareType,DateUTC
2013-02-12 00:00:00,36.9,19.9,28.91,WSW,247,7.6,17.4,50,0.00,,,0.00,WUHU216WMR100,2013-02-12 05:00:00,
2013-02-12 00:05:00,36.7,19.7,28.94,NNW,337,4.5,10.3,50,0.00,,,0.00,WUHU216WMR100,2013-02-12 05:05:00,
2013-02-12 00:10:00,36.7,19.7,28.94,NW,315,6.7,8.5,50,0.00,,,0.00,WUHU216WMR100,2013-02-12 05:10:00,
2013-02-12 00:15:00,36.7,19.7,28.94,WNW,292,4.3,12.3,50,0.00,,,0.00,WUHU216WMR100,2013-02-12 05:15:00,
2013-02-12 00:20:00,36.5,19.6,28.94,WNW,292,6.9,12.3,50,0.00,,,0.00,WUHU216WMR100,2013-02-12 05:20:00,
2013-02-12 00:25:00,36.7,19.7,28.94,NW,315,6.3,10.1,50,0.00,,,0.00,WUHU216WMR100,2013-02-12 05:25:00,
2013-02-12 00:30:00,36.7,19.7,28.94,WNW,292,7.4,14.8,50,0.00,,,0.00,WUHU216WMR100,2013-02-12 05:30:00,
2013-02-12 00:35:00,36.5,19.6,28.94,WSW,247,5.4,15.2,50,0.00,,,0.00,WUHU216WMR100,2013-02-12 05:35:00,
2013-02-12 00:40:00,36.5,19.6,28.94,SSE,157,6.0,15.2,50,0.00,,,0.00,WUHU216WMR100,2013-02-12 05:40:00,
2013-02-12 00:45:00,36.5,19.6,28.94,SSW,202,3.8,14.1,50,0.00,,,0.00,WUHU216WMR100,2013-02-12 05:45:00,
2013-02-12 00:50:00,36.5,19.6,28.94,WSW,247,5.8,14.1,50,0.00,,,0.00,WUHU216WMR100,2013-02-12 05:50:00,
2013-02-12 00:55:00,36.3,19.4,28.94,NNE,22,4.9,13.4,50,0.00,,,0.00,WUHU216WMR100,2013-02-12 05:55:00,
2013-02-12 01:00:00,36.3,19.4,28.94,WNW,292,6.5,13.4,50,0.00,,,0.00,WUHU216WMR100,2013-02-12 06:00:00,
2013-02-12 01:05:00,36.3,19.4,28.94,WSW,247,5.4,11.0,50,0.00,,,0.00,WUHU216WMR100,2013-02-12 06:05:00,
2013-02-12 01:10:00,36.3,19.8,28.94,NW,315,2.9,11.0,51,0.00,,,0.00,WUHU216WMR100,2013-02-12 06:10:00,
2013-02-12 01:15:00,36.1,19.2,28.94,North,0,3.6,10.7,50,0.00,,,0.00,WUHU216WMR100,2013-02-12 06:15:00,
2013-02-12 01:20:00,36.1,19.2,28.94,West,270,2.9,12.5,50,0.00,,,0.00,WUHU216WMR100,2013-02-12 06:20:00,
2013-02-12 01:25:00,36.0,19.1,28.94,WNW,292,7.4,12.5,50,0.00,,,0.00,WUHU216WMR100,2013-02-12 06:25:00,
2013-02-12 01:30:00,36.0,19.1,28.94,WSW,247,5.6,12.5,50,0.00,,,0.00,WUHU216WMR100,2013-02-12 06:30:00,
2013-02-12 01:35:00,35.8,18.9,28.97,WNW,292,5.4,12.3,50,0.00,,,0.00,WUHU216WMR100,2013-02-12 06:35:00,
2013-02-12 01:40:00,35.8,18.9,28.97,NNW,337,6.3,11.0,50,0.00,,,0.00,WUHU216WMR100,2013-02-12 06:40:00,
2013-02-12 01:45:00,35.6,18.7,28.97,WSW,247,9.8,12.3,50,0.00,,,0.00,WUHU216WMR100,2013-02-12 06:45:00,
2013-02-12 01:50:00,35.6,19.2,28.94,West,270,4.0,12.3,51,0.00,,,0.00,WUHU216WMR100,2013-02-12 06:50:00,
2013-02-12 01:55:00,35.4,19.5,28.94,WNW,292,3.8,13.0,52,0.00,,,0.00,WUHU216WMR100,2013-02-12 06:55:00,
2013-02-12 02:00:00,35.4,19.5,28.94,West,270,2.5,13.0,52,0.00,,,0.00,WUHU216WMR100,2013-02-12 07:00:00,
2013-02-12 02:05:00,35.4,19.5,28.97,West,270,6.9,13.2,52,0.00,,,0.00,WUHU216WMR100,2013-02-12 07:05:00,
2013-02-12 02:10:00,35.2,19.3,28.97,NNW,337,6.9,13.2,52,0.00,,,0.00,WUHU216WMR100,2013-02-12 07:10:00,
2013-02-12 02:15:00,35.1,19.2,28.97,WNW,292,7.4,13.2,52,0.00,,,0.00,WUHU216WMR100,2013-02-12 07:15:00,
2013-02-12 02:20:00,34.9,19.0,28.97,WNW,292,4.0,12.8,52,0.00,,,0.00,WUHU216WMR100,2013-02-12 07:20:00,
2013-02-12 02:25:00,34.9,19.0,28.97,West,270,6.0,10.7,52,0.00,,,0.00,WUHU216WMR100,2013-02-12 07:25:00,
2013-02-12 02:30:00,34.7,18.8,28.97,WSW,247,4.7,10.5,52,0.00,,,0.00,WUHU216WMR100,2013-02-12 07:30:00,
2013-02-12 02:35:00,34.5,18.6,28.97,North,0,7.4,15.7,52,0.00,,,0.00,WUHU216WMR100,2013-02-12 07:35:00,
2013-02-12 02:40:00,34.5,18.6,28.97,SSW,202,6.9,15.7,52,0.00,,,0.00,WUHU216WMR100,2013-02-12 07:40:00,
2013-02-12 02:45:00,34.3,18.5,28.97,WNW,292,4.9,12.3,52,0.00,,,0.00,WUHU216WMR100,2013-02-12 07:45:00,
2013-02-12 02:50:00,34.3,18.9,28.97,NW,315,6.5,12.3,53,0.00,,,0.00,WUHU216WMR100,2013-02-12 07:50:00,
2013-02-12 02:55:00,34.3,18.9,28.97,WNW,292,6.5,10.5,53,0.00,,,0.00,WUHU216WMR100,2013-02-12 07:55:00,
2013-02-12 03:00:00,34.3,18.9,28.97,WNW,292,7.6,11.2,53,0.00,,,0.00,WUHU216WMR100,2013-02-12 08:00:00,
2013-02-12 03:05:00,34.2,19.3,28.97,WSW,247,4.0,11.2,54,0.00,,,0.00,WUHU216WMR100,2013-02-12 08:05:00,
2013-02-12 03:10:00,34.2,19.3,28.97,NNW,337,4.5,7.6,54,0.00,,,0.00,WUHU216WMR100,2013-02-12 08:10:00,
2013-02-12 03:15:00,34.0,19.1,28.97,NW,315,7.4,8.7,54,0.00,,,0.00,WUHU216WMR100,2013-02-12 08:15:00,
2013-02-12 03:20:00,34.0,19.1,28.97,NNW,337,5.4,10.5,54,0.00,,,0.00,WUHU216WMR100,2013-02-12 08:20:00,
2013-02-12 03:25:00,33.8,18.9,28.97,WNW,292,6.0,12.1,54,0.00,,,0.00,WUHU216WMR100,2013-02-12 08:25:00,
2013-02-12 03:31:00,33.8,18.9,28.97,WNW,292,4.3,12.1,54,0.00,,,0.00,WUHU216WMR100,2013-02-12 08:31:00,
2013-02-12 03:36:00,33.6,19.1,28.97,NNW,337,5.8,10.5,55,0.00,,,0.00,WUHU216WMR100,2013-02-12 08:36:00,
2013-02-12 03:41:00,33.6,19.1,28.97,WNW,292,5.4,10.5,55,0.00,,,0.00,WUHU216WMR100,2013-02-12 08:41:00,
2013-02-12 03:46:00,33.6,19.1,28.97,NW,315,3.1,8.7,55,0.00,,,0.00,WUHU216WMR100,2013-02-12 08:46:00,
2013-02-12 03:51:00,33.6,19.1,28.97,West,270,5.4,9.6,55,0.00,,,0.00,WUHU216WMR100,2013-02-12 08:51:00,
2013-02-12 03:56:00,33.6,18.7,28.97,WNW,292,5.4,9.6,54,0.00,,,0.00,WUHU216WMR100,2013-02-12 08:56:00,
2013-02-12 04:02:00,33.4,19.0,28.97,West,270,6.0,10.3,55,0.00,,,0.00,WUHU216WMR100,2013-02-12 09:02:00,
2013-02-12 04:07:00,33.4,18.5,28.97,West,270,3.8,10.3,54,0.00,,,0.00,WUHU216WMR100,2013-02-12 09:07:00,
2013-02-12 04:12:00,33.4,19.0,28.97,WNW,292,4.9,10.3,55,0.00,,,0.00,WUHU216WMR100,2013-02-12 09:12:00,
2013-02-12 04:17:00,33.4,18.5,28.97,SSW,202,7.2,10.5,54,0.00,,,0.00,WUHU216WMR100,2013-02-12 09:17:00,
2013-02-12 04:22:00,33.4,18.5,28.97,WNW,292,4.7,10.7,54,0.00,,,0.00,WUHU216WMR100,2013-02-12 09:22:00,
2013-02-12 04:27:00,33.3,18.9,28.97,WNW,292,2.9,10.7,55,0.00,,,0.00,WUHU216WMR100,2013-02-12 09:27:00,
2013-02-12 04:32:00,33.3,18.9,28.97,West,270,4.5,8.5,55,0.00,,,0.00,WUHU216WMR100,2013-02-12 09:32:00,
2013-02-12 04:37:00,33.3,18.9,28.97,WNW,292,3.6,8.5,55,0.00,,,0.00,WUHU216WMR100,2013-02-12 09:37:00,
2013-02-12 04:42:00,33.3,18.9,28.97,West,270,4.7,6.5,55,0.00,,,0.00,WUHU216WMR100,2013-02-12 09:42:00,
2013-02-12 04:47:00,33.3,18.9,28.97,WSW,247,3.6,7.8,55,0.00,,,0.00,WUHU216WMR100,2013-02-12 09:47:00,
2013-02-12 04:52:00,33.3,18.9,28.97,WNW,292,3.8,10.3,55,0.00,,,0.00,WUHU216WMR100,2013-02-12 09:52:00,
2013-02-12 04:57:00,33.3,18.9,28.97,WNW,292,4.5,10.3,55,0.00,,,0.00,WUHU216WMR100,2013-02-12 09:57:00,
2013-02-12 05:02:00,33.3,18.9,28.97,WSW,247,4.5,7.6,55,0.00,,,0.00,WUHU216WMR100,2013-02-12 10:02:00,
2013-02-12 05:07:00,33.3,18.9,29.00,WNW,292,3.8,9.4,55,0.00,,,0.00,WUHU216WMR100,2013-02-12 10:07:00,
2013-02-12 05:12:00,33.3,18.9,29.00,WNW,292,3.4,9.4,55,0.00,,,0.00,WUHU216WMR100,2013-02-12 10:12:00,
2013-02-12 05:17:00,33.3,18.9,29.00,WSW,247,3.6,7.8,55,0.00,,,0.00,WUHU216WMR100,2013-02-12 10:17:00,
2013-02-12 05:23:00,33.3,19.3,28.97,WSW,247,4.9,7.4,56,0.00,,,0.00,WUHU216WMR100,2013-02-12 10:23:00,
2013-02-12 05:28:00,33.3,18.9,28.97,WSW,247,4.9,6.9,55,0.00,,,0.00,WUHU216WMR100,2013-02-12 10:28:00,
2013-02-12 05:33:00,33.3,18.9,28.97,WSW,247,2.9,6.0,55,0.00,,,0.00,WUHU216WMR100,2013-02-12 10:33:00,
2013-02-12 05:38:00,33.3,19.3,29.00,West,270,3.1,7.2,56,0.00,,,0.00,WUHU216WMR100,2013-02-12 10:38:00,
2013-02-12 05:43:00,33.3,19.3,29.00,NNW,337,2.2,7.2,56,0.00,,,0.00,WUHU216WMR100,2013-02-12 10:43:00,
2013-02-12 05:48:00,33.3,19.3,29.00,West,270,5.6,6.0,56,0.00,,,0.00,WUHU216WMR100,2013-02-12 10:48:00,
2013-02-12 05:53:00,33.3,19.7,29.00,NNW,337,4.5,6.0,57,0.00,,,0.00,WUHU216WMR100,2013-02-12 10:53:00,
2013-02-12 05:58:00,33.3,19.7,29.00,NNW,337,3.4,6.0,57,0.00,,,0.00,WUHU216WMR100,2013-02-12 10:58:00,
2013-02-12 06:03:00,33.3,19.7,29.00,WSW,247,3.6,6.0,57,0.00,,,0.00,WUHU216WMR100,2013-02-12 11:03:00,
2013-02-12 06:08:00,33.1,19.5,29.00,West,270,5.8,7.8,57,0.00,,,0.00,WUHU216WMR100,2013-02-12 11:08:00,
2013-02-12 06:14:00,33.1,19.5,29.00,NNW,337,2.2,7.8,57,0.00,,,0.00,WUHU216WMR100,2013-02-12 11:14:00,
2013-02-12 06:19:00,33.1,19.5,29.00,NNW,337,2.9,4.3,57,0.00,,,0.00,WUHU216WMR100,2013-02-12 11:19:00,
2013-02-12 06:25:00,33.1,20.0,29.00,NW,315,2.9,5.4,58,0.00,,,0.00,WUHU216WMR100,2013-02-12 11:25:00,
2013-02-12 06:30:00,33.1,20.0,29.00,North,0,2.0,5.4,58,0.00,,,0.00,WUHU216WMR100,2013-02-12 11:30:00,
2013-02-12 06:35:00,33.1,20.0,29.03,North,0,3.8,7.8,58,0.00,,,0.00,WUHU216WMR100,2013-02-12 11:35:00,
2013-02-12 06:40:00,33.1,20.0,29.03,WSW,247,3.6,7.8,58,0.00,,,0.00,WUHU216WMR100,2013-02-12 11:40:00,
2013-02-12 06:45:00,33.1,20.4,29.03,WNW,292,4.3,6.5,59,0.00,,,0.00,WUHU216WMR100,2013-02-12 11:45:00,
2013-02-12 06:50:00,33.1,20.4,29.03,WNW,292,2.9,7.2,59,0.00,,,0.00,WUHU216WMR100,2013-02-12 11:50:00,
2013-02-12 06:55:00,33.1,20.0,29.03,SW,225,1.3,7.2,58,0.00,,,0.00,WUHU216WMR100,2013-02-12 11:55:00,
2013-02-12 07:00:00,33.1,20.4,29.03,North,0,2.7,6.0,59,0.00,,,0.00,WUHU216WMR100,2013-02-12 12:00:00,
2013-02-12 07:05:00,32.9,20.2,29.03,NNW,337,1.6,4.0,59,0.00,,,0.00,WUHU216WMR100,2013-02-12 12:05:00,
2013-02-12 07:10:00,32.9,20.2,29.03,NNW,337,2.5,3.8,59,0.00,,,0.00,WUHU216WMR100,2013-02-12 12:10:00,
2013-02-12 07:15:00,32.9,20.2,29.03,NNW,337,1.3,4.3,59,0.00,,,0.00,WUHU216WMR100,2013-02-12 12:15:00,
2013-02-12 07:20:00,32.9,20.2,29.03,NNW,337,2.2,4.7,59,0.00,,,0.00,WUHU216WMR100,2013-02-12 12:20:00,
2013-02-12 07:25:00,32.9,20.2,29.03,North,0,3.4,6.5,59,0.00,,,0.00,WUHU216WMR100,2013-02-12 12:25:00,
2013-02-12 07:30:00,32.9,20.6,29.03,WNW,292,6.3,9.2,60,0.00,,,0.00,WUHU216WMR100,2013-02-12 12:30:00,
2013-02-12 07:35:00,32.7,20.4,29.03,WNW,292,2.9,9.2,60,0.00,,,0.00,WUHU216WMR100,2013-02-12 12:35:00,
2013-02-12 07:40:00,32.7,20.4,29.03,WNW,292,3.6,7.4,60,0.00,,,0.00,WUHU216WMR100,2013-02-12 12:40:00,
2013-02-12 07:45:00,32.7,20.4,29.03,WSW,247,3.4,8.7,60,0.00,,,0.00,WUHU216WMR100,2013-02-12 12:45:00,
2013-02-12 07:50:00,32.7,20.8,29.06,WSW,247,2.9,8.7,61,0.00,,,0.00,WUHU216WMR100,2013-02-12 12:50:00,
2013-02-12 07:55:00,32.7,20.4,29.06,NW,315,2.5,6.3,60,0.00,,,0.00,WUHU216WMR100,2013-02-12 12:55:00,
2013-02-12 08:00:00,32.7,20.8,29.06,NNW,337,3.6,6.0,61,0.00,,,0.00,WUHU216WMR100,2013-02-12 13:00:00,
2013-02-12 08:05:00,32.7,20.8,29.06,NNW,337,3.6,6.0,61,0.00,,,0.00,WUHU216WMR100,2013-02-12 13:05:00,
2013-02-12 08:10:00,32.7,20.8,29.06,WNW,292,3.8,6.3,61,0.00,,,0.00,WUHU216WMR100,2013-02-12 13:10:00,
2013-02-12 08:15:00,32.7,20.8,29.06,WNW,292,2.9,8.1,61,0.00,,,0.00,WUHU216WMR100,2013-02-12 13:15:00,
2013-02-12 08:20:00,32.7,20.4,29.06,SW,225,5.6,8.1,60,0.00,,,0.00,WUHU216WMR100,2013-02-12 13:20:00,
2013-02-12 08:25:00,32.9,20.2,29.06,WNW,292,2.7,6.3,59,0.00,,,0.00,WUHU216WMR100,2013-02-12 13:25:00,
2013-02-12 08:30:00,32.9,19.8,29.06,WSW,247,4.3,6.9,58,0.00,,,0.00,WUHU216WMR100,2013-02-12 13:30:00,
2013-02-12 08:35:00,32.9,19.3,29.06,WSW,247,3.8,7.4,57,0.00,,,0.00,WUHU216WMR100,2013-02-12 13:35:00,
2013-02-12 08:40:00,32.9,19.3,29.06,WSW,247,2.5,7.4,57,0.00,,,0.00,WUHU216WMR100,2013-02-12 13:40:00,
2013-02-12 08:45:00,32.9,18.9,29.06,WSW,247,4.5,7.8,56,0.00,,,0.00,WUHU216WMR100,2013-02-12 13:45:00,
2013-02-12 08:50:00,32.7,18.7,29.06,NNW,337,4.3,7.8,56,0.00,,,0.00,WUHU216WMR100,2013-02-12 13:50:00,
2013-02-12 08:55:00,32.7,19.2,29.06,SSW,202,3.8,6.3,57,0.00,,,0.00,WUHU216WMR100,2013-02-12 13:55:00,
2013-02-12 09:00:00,32.9,19.3,29.06,WSW,247,3.1,7.6,57,0.00,,,0.00,WUHU216WMR100,2013-02-12 14:00:00,
2013-02-12 09:05:00,32.9,19.3,29.06,WSW,247,2.7,7.6,57,0.00,,,0.00,WUHU216WMR100,2013-02-12 14:05:00,
2013-02-12 09:10:00,32.9,19.3,29.06,West,270,4.9,6.0,57,0.00,,,0.00,WUHU216WMR100,2013-02-12 14:10:00,
2013-02-12 09:15:00,33.1,19.5,29.06,West,270,3.1,6.0,57,0.00,,,0.00,WUHU216WMR100,2013-02-12 14:15:00,
2013-02-12 09:20:00,33.3,19.7,29.06,WNW,292,3.6,5.8,57,0.00,,,0.00,WUHU216WMR100,2013-02-12 14:20:00,
2013-02-12 09:25:00,33.1,19.1,29.06,West,270,4.0,7.2,56,0.00,,,0.00,WUHU216WMR100,2013-02-12 14:25:00,
2013-02-12 09:30:00,33.1,19.1,29.06,WSW,247,3.1,7.2,56,0.00,,,0.00,WUHU216WMR100,2013-02-12 14:30:00,
2013-02-12 09:35:00,33.3,18.9,29.09,WSW,247,6.0,10.3,55,0.00,,,0.00,WUHU216WMR100,2013-02-12 14:35:00,
2013-02-12 09:40:00,33.1,18.7,29.09,WSW,247,4.7,10.3,55,0.00,,,0.00,WUHU216WMR100,2013-02-12 14:40:00,
2013-02-12 09:45:00,33.3,18.9,29.09,WNW,292,3.8,7.2,55,0.00,,,0.00,WUHU216WMR100,2013-02-12 14:45:00,
2013-02-12 09:50:00,33.4,19.0,29.09,WSW,247,3.6,6.0,55,0.00,,,0.00,WUHU216WMR100,2013-02-12 14:50:00,
2013-02-12 09:55:00,33.4,18.5,29.09,West,270,6.3,9.8,54,0.00,,,0.00,WUHU216WMR100,2013-02-12 14:55:00,
2013-02-12 10:00:00,33.6,18.7,29.09,NNW,337,3.4,10.1,54,0.00,,,0.00,WUHU216WMR100,2013-02-12 15:00:00,
2013-02-12 10:05:00,33.4,18.5,29.06,NNW,337,7.2,10.5,54,0.00,,,0.00,WUHU216WMR100,2013-02-12 15:05:00,
2013-02-12 10:10:00,33.6,18.7,29.06,NNW,337,4.0,10.5,54,0.00,,,0.00,WUHU216WMR100,2013-02-12 15:10:00,
2013-02-12 10:15:00,34.0,19.1,29.06,NNW,337,2.0,7.4,54,0.00,,,0.00,WUHU216WMR100,2013-02-12 15:15:00,
2013-02-12 10:20:00,34.2,19.3,29.09,NNW,337,2.9,5.8,54,0.00,,,0.00,WUHU216WMR100,2013-02-12 15:20:00,
2013-02-12 10:25:00,34.2,19.3,29.09,WNW,292,3.1,6.3,54,0.00,,,0.00,WUHU216WMR100,2013-02-12 15:25:00,
2013-02-12 10:31:00,34.3,19.4,29.09,West,270,2.9,6.3,54,0.00,,,0.00,WUHU216WMR100,2013-02-12 15:31:00,
2013-02-12 10:36:00,34.5,19.6,29.09,WNW,292,3.4,7.2,54,0.00,,,0.00,WUHU216WMR100,2013-02-12 15:36:00,
2013-02-12 10:41:00,34.5,19.6,29.09,WSW,247,3.1,7.4,54,0.00,,,0.00,WUHU216WMR100,2013-02-12 15:41:00,
2013-02-12 10:47:00,34.9,19.9,29.09,WNW,292,1.6,7.4,54,0.00,,,0.00,WUHU216WMR100,2013-02-12 15:47:00,
2013-02-12 10:52:00,34.5,19.1,29.06,WNW,292,4.3,7.8,53,0.00,,,0.00,WUHU216WMR100,2013-02-12 15:52:00,
2013-02-12 10:57:00,34.5,19.1,29.06,SSW,202,4.3,7.8,53,0.00,,,0.00,WUHU216WMR100,2013-02-12 15:57:00,
2013-02-12 11:02:00,34.9,19.5,29.06,WNW,292,3.8,8.7,53,0.00,,,0.00,WUHU216WMR100,2013-02-12 16:02:00,
2013-02-12 11:07:00,35.1,19.2,29.06,WSW,247,4.0,8.7,52,0.00,,,0.00,WUHU216WMR100,2013-02-12 16:07:00,
2013-02-12 11:12:00,35.8,19.9,29.06,NW,315,2.5,6.0,52,0.00,,,0.00,WUHU216WMR100,2013-02-12 16:12:00,
2013-02-12 11:17:00,36.1,20.1,29.06,WNW,292,2.7,5.4,52,0.00,,,0.00,WUHU216WMR100,2013-02-12 16:17:00,
2013-02-12 11:22:00,36.5,20.0,29.06,NNW,337,3.6,5.4,51,0.00,,,0.00,WUHU216WMR100,2013-02-12 16:22:00,
2013-02-12 11:27:00,36.7,20.2,29.06,WSW,247,3.1,5.6,51,0.00,,,0.00,WUHU216WMR100,2013-02-12 16:27:00,
2013-02-12 11:32:00,36.7,19.7,29.06,WSW,247,4.5,6.3,50,0.00,,,0.00,WUHU216WMR100,2013-02-12 16:32:00,
2013-02-12 11:37:00,37.0,20.5,29.06,WNW,292,3.1,7.4,51,0.00,,,0.00,WUHU216WMR100,2013-02-12 16:37:00,
2013-02-12 11:42:00,37.2,20.2,29.06,WNW,292,4.0,7.4,50,0.00,,,0.00,WUHU216WMR100,2013-02-12 16:42:00,
2013-02-12 11:47:00,37.2,20.2,29.06,NNW,337,3.4,6.7,50,0.00,,,0.00,WUHU216WMR100,2013-02-12 16:47:00,
2013-02-12 11:53:00,36.9,19.9,29.06,NNW,337,5.8,9.8,50,0.00,,,0.00,WUHU216WMR100,2013-02-12 16:53:00,
2013-02-12 11:58:00,37.8,20.8,29.06,SSW,202,3.1,9.8,50,0.00,,,0.00,WUHU216WMR100,2013-02-12 16:58:00,
2013-02-12 12:03:00,38.1,21.0,29.06,NNW,337,3.4,8.5,50,0.00,,,0.00,WUHU216WMR100,2013-02-12 17:03:00,
2013-02-12 12:08:00,39.2,21.1,29.06,West,270,2.9,8.5,48,0.00,,,0.00,WUHU216WMR100,2013-02-12 17:08:00,
2013-02-12 12:13:00,40.1,21.4,29.06,SW,225,3.1,6.3,47,0.00,,,0.00,WUHU216WMR100,2013-02-12 17:13:00,
2013-02-12 12:18:00,40.5,21.2,29.06,WSW,247,1.3,6.0,46,0.00,,,0.00,WUHU216WMR100,2013-02-12 17:18:00,
2013-02-12 12:23:00,39.9,20.1,29.03,NNW,337,3.1,6.0,45,0.00,,,0.00,WUHU216WMR100,2013-02-12 17:23:00,
2013-02-12 12:28:00,40.3,21.0,29.03,South,180,1.6,5.4,46,0.00,,,0.00,WUHU216WMR100,2013-02-12 17:28:00,
2013-02-12 12:33:00,40.8,21.0,29.03,NNE,22,2.5,4.7,45,0.00,,,0.00,WUHU216WMR100,2013-02-12 17:33:00,
2013-02-12 12:38:00,43.7,22.5,29.03,WNW,292,3.8,4.9,43,0.00,,,0.00,WUHU216WMR100,2013-02-12 17:38:00,
2013-02-12 12:43:00,41.7,19.5,29.03,West,270,3.1,8.5,41,0.00,,,0.00,WUHU216WMR100,2013-02-12 17:43:00,
2013-02-12 12:48:00,41.7,20.7,29.03,WSW,247,3.4,8.5,43,0.00,,,0.00,WUHU216WMR100,2013-02-12 17:48:00,
2013-02-12 12:53:00,43.2,22.6,29.03,West,270,2.7,8.1,44,0.00,,,0.00,WUHU216WMR100,2013-02-12 17:53:00,
2013-02-12 12:58:00,41.2,20.2,29.03,West,270,6.3,8.1,43,0.00,,,0.00,WUHU216WMR100,2013-02-12 17:58:00,
2013-02-12 13:03:00,41.2,20.2,29.03,South,180,4.3,8.1,43,0.00,,,0.00,WUHU216WMR100,2013-02-12 18:03:00,
2013-02-12 13:08:00,41.0,20.0,29.03,NW,315,4.9,7.6,43,0.00,,,0.00,WUHU216WMR100,2013-02-12 18:08:00,
2013-02-12 13:13:00,43.3,22.1,29.03,WSW,247,3.8,6.3,43,0.00,,,0.00,WUHU216WMR100,2013-02-12 18:13:00,
2013-02-12 13:18:00,44.4,22.0,29.03,WNW,292,2.9,6.9,41,0.00,,,0.00,WUHU216WMR100,2013-02-12 18:18:00,
2013-02-12 13:23:00,42.4,20.2,29.03,West,270,2.9,8.1,41,0.00,,,0.00,WUHU216WMR100,2013-02-12 18:23:00,
2013-02-12 13:28:00,44.1,21.1,29.03,WSW,247,4.7,8.1,40,0.00,,,0.00,WUHU216WMR100,2013-02-12 18:28:00,
2013-02-12 13:33:00,45.3,21.0,29.03,SSW,202,5.6,8.1,38,0.00,,,0.00,WUHU216WMR100,2013-02-12 18:33:00,
2013-02-12 13:38:00,46.0,21.6,29.00,SSW,202,2.7,8.1,38,0.00,,,0.00,WUHU216WMR100,2013-02-12 18:38:00,
2013-02-12 13:43:00,45.1,20.8,29.00,WSW,247,3.1,8.1,38,0.00,,,0.00,WUHU216WMR100,2013-02-12 18:43:00,
2013-02-12 13:48:00,46.2,21.8,29.00,WSW,247,2.9,8.1,38,0.00,,,0.00,WUHU216WMR100,2013-02-12 18:48:00,
2013-02-12 13:53:00,46.6,21.5,28.97,WSW,247,2.9,5.8,37,0.00,,,0.00,WUHU216WMR100,2013-02-12 18:53:00,
2013-02-12 13:58:00,46.2,21.1,28.97,WSW,247,3.8,7.6,37,0.00,,,0.00,WUHU216WMR100,2013-02-12 18:58:00,
2013-02-12 14:03:00,46.6,20.8,28.97,WNW,292,2.9,7.6,36,0.00,,,0.00,WUHU216WMR100,2013-02-12 19:03:00,
2013-02-12 14:08:00,46.2,20.5,28.94,NNW,337,3.8,5.8,36,0.00,,,0.00,WUHU216WMR100,2013-02-12 19:08:00,
2013-02-12 14:13:00,45.3,20.3,28.94,NNW,337,4.0,10.5,37,0.00,,,0.00,WUHU216WMR100,2013-02-12 19:13:00,
2013-02-12 14:18:00,46.6,21.5,28.94,NW,315,2.2,10.5,37,0.00,,,0.00,WUHU216WMR100,2013-02-12 19:18:00,
2013-02-12 14:23:00,46.2,20.5,28.94,NW,315,5.4,7.6,36,0.00,,,0.00,WUHU216WMR100,2013-02-12 19:23:00,
2013-02-12 14:28:00,47.1,21.3,28.94,SSE,157,3.1,7.6,36,0.00,,,0.00,WUHU216WMR100,2013-02-12 19:28:00,
2013-02-12 14:33:00,46.9,21.1,28.94,WNW,292,2.7,6.0,36,0.00,,,0.00,WUHU216WMR100,2013-02-12 19:33:00,
2013-02-12 14:38:00,47.5,22.3,28.94,SSW,202,2.9,4.9,37,0.00,,,0.00,WUHU216WMR100,2013-02-12 19:38:00,
2013-02-12 14:43:00,47.3,21.5,28.94,WNW,292,2.7,6.0,36,0.00,,,0.00,WUHU216WMR100,2013-02-12 19:43:00,
2013-02-12 14:48:00,46.8,21.0,28.94,WSW,247,4.0,6.0,36,0.00,,,0.00,WUHU216WMR100,2013-02-12 19:48:00,
2013-02-12 14:53:00,47.1,21.3,28.97,SSW,202,2.7,5.6,36,0.00,,,0.00,WUHU216WMR100,2013-02-12 19:53:00,
2013-02-12 14:58:00,46.8,20.3,28.97,SW,225,4.5,8.5,35,0.00,,,0.00,WUHU216WMR100,2013-02-12 19:58:00,
2013-02-12 15:03:00,46.6,20.2,28.97,WSW,247,4.9,8.5,35,0.00,,,0.00,WUHU216WMR100,2013-02-12 20:03:00,
2013-02-12 15:08:00,46.4,20.0,28.97,WNW,292,3.6,7.6,35,0.00,,,0.00,WUHU216WMR100,2013-02-12 20:08:00,
2013-02-12 15:13:00,46.6,20.2,28.97,West,270,4.9,7.6,35,0.00,,,0.00,WUHU216WMR100,2013-02-12 20:13:00,
2013-02-12 15:18:00,46.6,20.8,28.97,West,270,4.3,7.4,36,0.00,,,0.00,WUHU216WMR100,2013-02-12 20:18:00,
2013-02-12 15:23:00,47.1,21.3,28.97,NW,315,3.1,6.5,36,0.00,,,0.00,WUHU216WMR100,2013-02-12 20:23:00,
2013-02-12 15:28:00,46.9,19.7,28.97,WSW,247,4.0,6.0,34,0.00,,,0.00,WUHU216WMR100,2013-02-12 20:28:00,
2013-02-12 15:33:00,46.9,20.4,28.97,NNW,337,4.3,6.3,35,0.00,,,0.00,WUHU216WMR100,2013-02-12 20:33:00,
2013-02-12 15:38:00,46.8,19.7,28.97,NNW,337,6.0,9.6,34,0.00,,,0.00,WUHU216WMR100,2013-02-12 20:38:00,
2013-02-12 15:43:00,46.0,19.6,28.97,NW,315,5.8,9.6,35,0.00,,,0.00,WUHU216WMR100,2013-02-12 20:43:00,
2013-02-12 15:48:00,45.9,19.5,28.97,WSW,247,3.8,8.7,35,0.00,,,0.00,WUHU216WMR100,2013-02-12 20:48:00,
2013-02-12 15:53:00,46.0,19.6,28.97,SW,225,5.4,7.8,35,0.00,,,0.00,WUHU216WMR100,2013-02-12 20:53:00,
2013-02-12 15:58:00,46.0,20.3,28.97,NNW,337,4.5,7.8,36,0.00,,,0.00,WUHU216WMR100,2013-02-12 20:58:00,
2013-02-12 16:03:00,46.4,20.6,28.97,SSW,202,2.2,7.8,36,0.00,,,0.00,WUHU216WMR100,2013-02-12 21:03:00,
2013-02-12 16:08:00,46.8,21.0,28.97,WSW,247,4.9,8.7,36,0.00,,,0.00,WUHU216WMR100,2013-02-12 21:08:00,
2013-02-12 16:13:00,46.4,20.6,28.97,SSW,202,2.7,8.7,36,0.00,,,0.00,WUHU216WMR100,2013-02-12 21:13:00,
2013-02-12 16:18:00,46.6,21.5,28.97,NNW,337,2.0,5.8,37,0.00,,,0.00,WUHU216WMR100,2013-02-12 21:18:00,
2013-02-12 16:23:00,46.2,20.5,28.97,WNW,292,2.9,6.3,36,0.00,,,0.00,WUHU216WMR100,2013-02-12 21:23:00,
2013-02-12 16:28:00,45.5,20.5,28.97,West,270,3.8,6.3,37,0.00,,,0.00,WUHU216WMR100,2013-02-12 21:28:00,
2013-02-12 16:33:00,45.1,20.1,28.97,NNW,337,1.6,5.4,37,0.00,,,0.00,WUHU216WMR100,2013-02-12 21:33:00,
2013-02-12 16:38:00,44.4,20.2,28.97,SW,225,4.5,5.8,38,0.00,,,0.00,WUHU216WMR100,2013-02-12 21:38:00,
2013-02-12 16:43:00,43.9,19.7,28.97,WNW,292,4.0,8.5,38,0.00,,,0.00,WUHU216WMR100,2013-02-12 21:43:00,
2013-02-12 16:49:00,43.7,19.5,28.97,SSW,202,4.5,8.5,38,0.00,,,0.00,WUHU216WMR100,2013-02-12 21:49:00,
2013-02-12 16:54:00,43.3,19.2,28.97,WSW,247,2.9,5.8,38,0.00,,,0.00,WUHU216WMR100,2013-02-12 21:54:00,
2013-02-12 16:59:00,43.3,19.2,28.97,WNW,292,2.7,5.6,38,0.00,,,0.00,WUHU216WMR100,2013-02-12 21:59:00,
2013-02-12 17:04:00,43.5,20.0,28.97,NNE,22,1.6,5.4,39,0.00,,,0.00,WUHU216WMR100,2013-02-12 22:04:00,
2013-02-12 17:09:00,43.5,20.0,28.97,WSW,247,2.7,3.6,39,0.00,,,0.00,WUHU216WMR100,2013-02-12 22:09:00,
2013-02-12 17:14:00,43.5,20.0,28.97,WNW,292,1.1,6.3,39,0.00,,,0.00,WUHU216WMR100,2013-02-12 22:14:00,
2013-02-12 17:19:00,43.3,19.8,28.97,NNW,337,2.2,6.3,39,0.00,,,0.00,WUHU216WMR100,2013-02-12 22:19:00,
2013-02-12 17:24:00,42.8,19.3,28.97,SSW,202,1.6,4.0,39,0.00,,,0.00,WUHU216WMR100,2013-02-12 22:24:00,
2013-02-12 17:29:00,42.3,18.9,28.97,WNW,292,2.0,3.8,39,0.00,,,0.00,WUHU216WMR100,2013-02-12 22:29:00,
2013-02-12 17:34:00,41.9,19.1,28.97,WNW,292,1.1,2.7,40,0.00,,,0.00,WUHU216WMR100,2013-02-12 22:34:00,
2013-02-12 17:39:00,41.2,18.5,28.97,SSW,202,0.0,2.7,40,0.00,,,0.00,WUHU216WMR100,2013-02-12 22:39:00,
2013-02-12 17:44:00,40.6,18.5,28.97,WNW,292,0.0,2.5,41,0.00,,,0.00,WUHU216WMR100,2013-02-12 22:44:00,
2013-02-12 17:49:00,40.3,18.3,28.97,WNW,292,0.0,1.3,41,0.00,,,0.00,WUHU216WMR100,2013-02-12 22:49:00,
2013-02-12 17:54:00,39.7,17.7,28.97,West,270,0.0,1.6,41,0.00,,,0.00,WUHU216WMR100,2013-02-12 22:54:00,
2013-02-12 17:59:00,39.4,18.0,28.97,SW,225,0.0,2.7,42,0.00,,,0.00,WUHU216WMR100,2013-02-12 22:59:00,
2013-02-12 18:04:00,39.2,17.8,28.97,North,0,0.9,2.7,42,0.00,,,0.00,WUHU216WMR100,2013-02-12 23:04:00,
2013-02-12 18:09:00,38.7,18.0,28.97,NNW,337,0.0,2.7,43,0.00,,,0.00,WUHU216WMR100,2013-02-12 23:09:00,
2013-02-12 18:14:00,37.8,17.1,28.97,NNW,337,0.0,1.1,43,0.00,,,0.00,WUHU216WMR100,2013-02-12 23:14:00,
2013-02-12 18:19:00,37.8,17.1,28.94,NNW,337,0.0,0.0,43,0.00,,,0.00,WUHU216WMR100,2013-02-12 23:19:00,
2013-02-12 18:24:00,37.0,17.0,28.94,NNW,337,0.0,0.0,44,0.00,,,0.00,WUHU216WMR100,2013-02-12 23:24:00,
2013-02-12 18:29:00,36.5,17.0,28.94,NNW,337,0.0,0.0,45,0.00,,,0.00,WUHU216WMR100,2013-02-12 23:29:00,
2013-02-12 18:34:00,36.1,16.7,28.94,NNW,337,0.0,0.0,45,0.00,,,0.00,WUHU216WMR100,2013-02-12 23:34:00,
2013-02-12 18:39:00,35.8,16.4,28.94,NNW,337,0.0,0.0,45,0.00,,,0.00,WUHU216WMR100,2013-02-12 23:39:00,
2013-02-12 18:44:00,36.0,17.1,28.94,NW,315,0.0,0.9,46,0.00,,,0.00,WUHU216WMR100,2013-02-12 23:44:00,
2013-02-12 18:49:00,35.6,17.2,28.94,NNW,337,0.0,0.9,47,0.00,,,0.00,WUHU216WMR100,2013-02-12 23:49:00,
2013-02-12 18:54:00,35.2,16.9,28.94,NNW,337,0.0,0.0,47,0.00,,,0.00,WUHU216WMR100,2013-02-12 23:54:00,
2013-02-12 18:59:00,35.1,17.3,28.94,NNW,337,0.0,0.0,48,0.00,,,0.00,WUHU216WMR100,2013-02-12 23:59:00,
2013-02-12 19:04:00,35.1,17.8,28.94,NNW,337,0.0,0.0,49,0.00,,,0.00,WUHU216WMR100,2013-02-13 00:04:00,
2013-02-12 19:09:00,35.2,18.4,28.94,NNW,337,0.0,0.0,50,0.00,,,0.00,WUHU216WMR100,2013-02-13 00:09:00,
2013-02-12 19:14:00,35.1,18.3,28.94,NNW,337,0.0,0.0,50,0.00,,,0.00,WUHU216WMR100,2013-02-13 00:14:00,
2013-02-12 19:19:00,34.7,17.9,28.94,NNW,337,0.0,0.0,50,0.00,,,0.00,WUHU216WMR100,2013-02-13 00:19:00,
2013-02-12 19:24:00,34.9,18.5,28.94,NNW,337,0.0,0.0,51,0.00,,,0.00,WUHU216WMR100,2013-02-13 00:24:00,
2013-02-12 19:29:00,34.5,18.2,28.94,NNW,337,0.0,0.0,51,0.00,,,0.00,WUHU216WMR100,2013-02-13 00:29:00,
2013-02-12 19:35:00,34.2,17.9,28.94,NNW,337,0.0,0.0,51,0.00,,,0.00,WUHU216WMR100,2013-02-13 00:35:00,
2013-02-12 19:40:00,34.0,17.7,28.94,NNW,337,0.0,0.0,51,0.00,,,0.00,WUHU216WMR100,2013-02-13 00:40:00,
2013-02-12 19:45:00,33.8,18.0,28.94,NNW,337,0.0,0.0,52,0.00,,,0.00,WUHU216WMR100,2013-02-13 00:45:00,
2013-02-12 19:50:00,33.4,17.6,28.94,NNW,337,0.0,0.0,52,0.00,,,0.00,WUHU216WMR100,2013-02-13 00:50:00,
2013-02-12 19:55:00,33.4,18.1,28.94,NNW,337,0.0,0.0,53,0.00,,,0.00,WUHU216WMR100,2013-02-13 00:55:00,
2013-02-12 20:00:00,33.3,18.0,28.94,North,0,0.0,0.0,53,0.00,,,0.00,WUHU216WMR100,2013-02-13 01:00:00,
2013-02-12 20:05:00,33.3,18.4,28.94,North,0,0.0,0.0,54,0.00,,,0.00,WUHU216WMR100,2013-02-13 01:05:00,
2013-02-12 20:10:00,32.7,17.9,28.94,North,0,0.0,0.0,54,0.00,,,0.00,WUHU216WMR100,2013-02-13 01:10:00,
2013-02-12 20:15:00,32.5,17.7,28.94,North,0,0.0,0.0,54,0.00,,,0.00,WUHU216WMR100,2013-02-13 01:15:00,
2013-02-12 20:20:00,32.4,18.0,28.94,North,0,0.0,0.0,55,0.00,,,0.00,WUHU216WMR100,2013-02-13 01:20:00,
2013-02-12 20:25:00,32.2,17.8,28.94,North,0,0.0,0.0,55,0.00,,,0.00,WUHU216WMR100,2013-02-13 01:25:00,
2013-02-12 20:30:00,32.0,18.1,28.94,North,0,0.0,0.0,56,0.00,,,0.00,WUHU216WMR100,2013-02-13 01:30:00,
2013-02-12 20:35:00,31.5,17.6,28.91,North,0,0.0,0.0,56,0.00,,,0.00,WUHU216WMR100,2013-02-13 01:35:00,
2013-02-12 20:40:00,31.1,17.7,28.91,North,0,0.0,0.0,57,0.00,,,0.00,WUHU216WMR100,2013-02-13 01:40:00,
2013-02-12 20:45:00,30.7,17.3,28.91,North,0,0.0,0.0,57,0.00,,,0.00,WUHU216WMR100,2013-02-13 01:45:00,
2013-02-12 20:50:00,30.6,17.6,28.91,North,0,0.0,0.0,58,0.00,,,0.00,WUHU216WMR100,2013-02-13 01:50:00,
2013-02-12 20:55:00,30.2,17.2,28.91,North,0,0.0,0.0,58,0.00,,,0.00,WUHU216WMR100,2013-02-13 01:55:00,
2013-02-12 21:00:00,30.0,17.4,28.91,North,0,0.0,0.0,59,0.00,,,0.00,WUHU216WMR100,2013-02-13 02:00:00,
2013-02-12 21:05:00,29.3,17.2,28.91,North,0,0.0,0.0,60,0.00,,,0.00,WUHU216WMR100,2013-02-13 02:05:00,
2013-02-12 21:10:00,29.1,17.0,28.91,North,0,0.0,0.0,60,0.00,,,0.00,WUHU216WMR100,2013-02-13 02:10:00,
2013-02-12 21:15:00,28.9,16.8,28.91,North,0,0.0,0.0,60,0.00,,,0.00,WUHU216WMR100,2013-02-13 02:15:00,
2013-02-12 21:20:00,28.9,17.2,28.91,North,0,0.0,0.0,61,0.00,,,0.00,WUHU216WMR100,2013-02-13 02:20:00,
2013-02-12 21:25:00,28.8,17.5,28.91,North,0,0.0,0.0,62,0.00,,,0.00,WUHU216WMR100,2013-02-13 02:25:00,
2013-02-12 21:30:00,28.6,17.7,28.91,North,0,0.0,0.0,63,0.00,,,0.00,WUHU216WMR100,2013-02-13 02:30:00,
2013-02-12 21:35:00,28.2,17.3,28.91,North,0,0.0,0.0,63,0.00,,,0.00,WUHU216WMR100,2013-02-13 02:35:00,
2013-02-12 21:40:00,28.0,17.1,28.91,North,0,0.0,0.0,63,0.00,,,0.00,WUHU216WMR100,2013-02-13 02:40:00,
2013-02-12 21:45:00,28.2,17.6,28.91,North,0,0.0,0.0,64,0.00,,,0.00,WUHU216WMR100,2013-02-13 02:45:00,
2013-02-12 21:50:00,28.0,17.4,28.91,North,0,0.0,0.0,64,0.00,,,0.00,WUHU216WMR100,2013-02-13 02:50:00,
2013-02-12 21:55:00,28.6,18.4,28.91,North,0,0.0,0.0,65,0.00,,,0.00,WUHU216WMR100,2013-02-13 02:55:00,
2013-02-12 22:00:00,28.4,18.5,28.91,North,0,0.0,0.0,66,0.00,,,0.00,WUHU216WMR100,2013-02-13 03:00:00,
2013-02-12 22:05:00,27.9,18.1,28.91,North,0,0.0,0.0,66,0.00,,,0.00,WUHU216WMR100,2013-02-13 03:05:00,
2013-02-12 22:10:00,27.7,18.2,28.91,North,0,0.0,0.0,67,0.00,,,0.00,WUHU216WMR100,2013-02-13 03:10:00,
2013-02-12 22:15:00,27.7,18.6,28.91,North,0,0.0,0.0,68,0.00,,,0.00,WUHU216WMR100,2013-02-13 03:15:00,
2013-02-12 22:20:00,27.5,18.4,28.91,North,0,0.0,0.0,68,0.00,,,0.00,WUHU216WMR100,2013-02-13 03:20:00,
2013-02-12 22:25:00,27.3,18.2,28.91,North,0,0.0,0.0,68,0.00,,,0.00,WUHU216WMR100,2013-02-13 03:25:00,
2013-02-12 22:30:00,27.3,18.5,28.91,North,0,0.0,0.0,69,0.00,,,0.00,WUHU216WMR100,2013-02-13 03:30:00,
2013-02-12 22:35:00,27.0,18.2,28.91,North,0,0.0,0.0,69,0.00,,,0.00,WUHU216WMR100,2013-02-13 03:35:00,
2013-02-12 22:40:00,26.8,18.0,28.91,North,0,0.0,0.0,69,0.00,,,0.00,WUHU216WMR100,2013-02-13 03:40:00,
2013-02-12 22:45:00,27.0,19.5,28.91,North,0,0.0,0.0,73,0.00,,,0.00,WUHU216WMR100,2013-02-13 03:45:00,
2013-02-12 22:50:00,27.0,19.2,28.91,North,0,0.0,0.0,72,0.00,,,0.00,WUHU216WMR100,2013-02-13 03:50:00,
2013-02-12 22:55:00,26.8,18.7,28.91,North,0,0.0,0.0,71,0.00,,,0.00,WUHU216WMR100,2013-02-13 03:55:00,
2013-02-12 23:00:00,27.0,18.9,28.91,ENE,67,0.0,0.0,71,0.00,,,0.00,WUHU216WMR100,2013-02-13 04:00:00,
2013-02-12 23:05:00,27.1,19.3,28.91,ENE,67,0.0,0.0,72,0.00,,,0.00,WUHU216WMR100,2013-02-13 04:05:00,
2013-02-12 23:10:00,27.1,19.3,28.91,ENE,67,0.0,0.0,72,0.00,,,0.00,WUHU216WMR100,2013-02-13 04:10:00,
2013-02-12 23:15:00,26.8,19.0,28.91,ENE,67,0.0,0.0,72,0.00,,,0.00,WUHU216WMR100,2013-02-13 04:15:00,
2013-02-12 23:20:00,26.4,18.6,28.91,ENE,67,0.0,0.0,72,0.00,,,0.00,WUHU216WMR100,2013-02-13 04:20:00,
2013-02-12 23:25:00,26.1,18.4,28.91,ENE,67,0.0,0.0,72,0.00,,,0.00,WUHU216WMR100,2013-02-13 04:25:00,
2013-02-12 23:30:00,26.4,19.0,28.91,ENE,67,0.0,0.0,73,0.00,,,0.00,WUHU216WMR100,2013-02-13 04:30:00,
2013-02-12 23:35:00,26.2,19.1,28.91,ENE,67,0.0,0.0,74,0.00,,,0.00,WUHU216WMR100,2013-02-13 04:35:00,
2013-02-12 23:40:00,26.1,19.0,28.91,ENE,67,0.0,0.0,74,0.00,,,0.00,WUHU216WMR100,2013-02-13 04:40:00,
2013-02-12 23:45:00,26.1,19.0,28.91,ENE,67,0.0,0.0,74,0.00,,,0.00,WUHU216WMR100,2013-02-13 04:45:00,
2013-02-12 23:50:00,25.5,18.4,28.91,ENE,67,0.0,0.0,74,0.00,,,0.00,WUHU216WMR100,2013-02-13 04:50:00,
2013-02-12 23:55:00,25.3,18.2,28.91,ENE,67,0.0,0.0,74,0.00,,,0.00,WUHU216WMR100,2013-02-13 04:55:00,